Weather History for KBAF - February, 2013

Change the Weather History Date:

Monday, February 18, 2013

  Actual Average Record
Temperature  
Mean Temperature 20 °F -  
Max Temperature 28 °F 35 °F 62 °F (2011)
Min Temperature 12 °F 17 °F -9 °F (2015)
Degree Days  
Heating Degree Days 45    
Moisture  
Dew Point -1 °F    
Average Humidity 39    
Maximum Humidity 51    
Minimum Humidity 28    
Precipitation  
Precipitation 0.00 in - - ()
Sea Level Pressure  
Sea Level Pressure 30.08 in    
Wind  
Wind Speed 15 mph (WNW)    
Max Wind Speed 29 mph    
Max Gust Speed 40 mph    
Visibility 10 miles    
Events      
Averages and records for this station are not official NWS values.
T = Trace of Precipitation, MM = Missing Value Source: NWS Daily Summary

Daily Weather History Graph

Daily Weather History Graph

Search for Another Location

Airport or City:

Trip Planner

Search our weather history database for the weather conditions in past years. The results will help you decide how hot, cold, wet, or windy it might be!

Date:

Astronomy

Feb. 18, 2013 Rise Set
Actual Time 6:42 AM EST 5:27 PM EST
Civil Twilight 6:13 AM EST 5:56 PM EST
Nautical Twilight 5:41 AM EST 6:28 PM EST
Astronomical Twilight 5:08 AM EST 7:01 PM EST
Moon 11:08 AM EST (2/18) 1:22 AM EST (2/18)
Length of Visible Light 11h 42m
Length of Day
10h 45m
First Quarter, 58% of the Moon is Illuminated
Feb 18
First Quarter
Feb 25
Full
Mar 4
Last Quarter
Mar 11
New
Mar 19
First Quarter

Hourly Weather History & Observations

Time (EST) Temp. Windchill Dew Point Humidity Pressure Visibility Wind Dir Wind Speed Gust Speed Precip Events Conditions
12:53 AM 14.0 °F -3.0 °F -2.0 °F 49% 29.87 in 10.0 mi WNW 18.4 mph 32.2 mph N/A   Clear
1:53 AM 14.0 °F 1.2 °F -2.9 °F 47% 29.89 in 10.0 mi WNW 10.4 mph 28.8 mph N/A   Clear
2:53 AM 14.0 °F -3.9 °F -2.9 °F 47% 29.91 in 10.0 mi NW 20.7 mph 27.6 mph N/A   Clear
3:53 AM 14.0 °F 2.9 °F -2.0 °F 49% 29.93 in 10.0 mi NW 8.1 mph 24.2 mph N/A   Clear
4:53 AM 14.0 °F -0.2 °F -2.0 °F 49% 29.97 in 10.0 mi NNW 12.7 mph 32.2 mph N/A   Clear
5:53 AM 12.9 °F -4.4 °F -2.9 °F 49% 30.01 in 10.0 mi NW 18.4 mph 25.3 mph N/A   Clear
6:53 AM 12.0 °F -2.7 °F -2.9 °F 51% 30.06 in 10.0 mi WNW 12.7 mph 21.9 mph N/A   Clear
7:53 AM 14.0 °F -1.4 °F -2.9 °F 47% 30.09 in 10.0 mi WNW 15.0 mph 19.6 mph N/A   Clear
8:53 AM 16.0 °F -2.1 °F -2.9 °F 43% 30.10 in 10.0 mi WNW 23.0 mph 31.1 mph N/A   Clear
9:53 AM 19.0 °F 2.7 °F -4.0 °F 36% 30.10 in 10.0 mi NW 20.7 mph 36.8 mph N/A   Clear
10:53 AM 21.9 °F 4.2 °F -4.0 °F 32% 30.11 in 10.0 mi WNW 28.8 mph 40.3 mph N/A   Clear
11:53 AM 24.1 °F 7.4 °F -2.9 °F 31% 30.12 in 10.0 mi NW 27.6 mph 35.7 mph N/A   Clear
12:53 PM 26.1 °F 11.6 °F -2.0 °F 30% 30.12 in 10.0 mi WNW 21.9 mph 28.8 mph N/A   Clear
1:53 PM 28.0 °F 17.0 °F -0.0 °F 30% 30.12 in 10.0 mi WNW 13.8 mph 21.9 mph N/A   Clear
2:53 PM 28.9 °F 19.2 °F -0.9 °F 28% 30.12 in 10.0 mi WNW 11.5 mph 23.0 mph N/A   Clear
3:53 PM 28.9 °F 18.6 °F -0.0 °F 29% 30.13 in 10.0 mi WNW 12.7 mph 23.0 mph N/A   Clear
4:53 PM 28.0 °F 17.0 °F -0.0 °F 30% 30.15 in 10.0 mi WNW 13.8 mph - N/A   Clear
5:53 PM 27.0 °F 20.5 °F -0.9 °F 30% 30.16 in 10.0 mi NW 5.8 mph 16.1 mph N/A   Clear
6:53 PM 26.1 °F 18.4 °F -0.9 °F 31% 30.18 in 10.0 mi West 6.9 mph - N/A   Clear
7:53 PM 26.1 °F 16.8 °F 1.0 °F 34% 30.18 in 10.0 mi West 9.2 mph - N/A   Clear
8:53 PM 25.0 °F 14.8 °F 1.9 °F 37% 30.17 in 10.0 mi West 10.4 mph - N/A   Clear
9:53 PM 26.1 °F 16.2 °F 3.0 °F 37% 30.18 in 10.0 mi WNW 10.4 mph - N/A   Clear
10:53 PM 24.1 °F - 5.0 °F 44% 30.17 in 10.0 mi Calm Calm - N/A   Mostly Cloudy
11:53 PM 21.9 °F 17.2 °F 3.9 °F 46% 30.18 in 10.0 mi South 3.5 mph - N/A   Clear